{"data":{"norad_id":45568,"epoch":"2026-05-31T22:36:07.276032Z","epoch_age_seconds":9660529,"freshness":"OLD","line1":"1 45568U 20025AP  26151.94175088  .04652870  12146-4  79529-3 0  9999","line2":"2 45568  53.0201 332.3898 0010629 276.8388  83.1446 16.32103456339313","mean_motion":16.32103456,"eccentricity":0.0010629,"inclination_deg":53.0201,"raan_deg":332.3898,"arg_perigee_deg":276.8388,"mean_anomaly_deg":83.1446,"bstar":0.00079529,"rev_number":33931,"period_min":88.229701046598,"perigee_km":179.91508053696,"apogee_km":193.87102141933,"semimajor_km":6565.0300509781,"source":"CELESTRAK","updated_at":"2026-06-01T09:00:37.343100Z"}}